TimeMDT,TemperatureF,Dew PointF,Humidity,Sea Level PressureIn,VisibilityMPH,Wind Direction,Wind SpeedMPH,Gust SpeedMPH,PrecipitationIn,Events,Conditions,WindDirDegrees,DateUTC
12:53 AM,37.0,34.0,89,30.02,10.0,Calm,Calm,-,N/A,,Clear,0,2012-10-29 06:53:00
1:53 AM,37.0,33.1,86,30.01,10.0,North,4.6,-,N/A,,Clear,360,2012-10-29 07:53:00
2:53 AM,39.0,34.0,82,30.01,10.0,North,4.6,-,N/A,,Clear,350,2012-10-29 08:53:00
3:53 AM,37.9,33.1,83,30.01,10.0,Calm,Calm,-,N/A,,Clear,0,2012-10-29 09:53:00
4:53 AM,37.0,33.1,86,30.01,10.0,Calm,Calm,-,N/A,,Clear,0,2012-10-29 10:53:00
5:53 AM,36.0,32.0,86,30.03,10.0,Calm,Calm,-,N/A,,Clear,0,2012-10-29 11:53:00
6:53 AM,36.0,32.0,86,30.06,10.0,ENE,4.6,-,N/A,,Clear,70,2012-10-29 12:53:00
7:53 AM,37.0,34.0,89,30.07,10.0,East,3.5,-,N/A,,Clear,100,2012-10-29 13:53:00
8:53 AM,43.0,37.0,80,30.07,10.0,East,3.5,-,N/A,,Clear,90,2012-10-29 14:53:00
9:53 AM,51.1,39.9,66,30.05,10.0,East,3.5,-,N/A,,Clear,100,2012-10-29 15:53:00
10:53 AM,59.0,39.9,49,30.04,10.0,West,5.8,-,N/A,,Clear,260,2012-10-29 16:53:00
11:53 AM,64.9,39.9,40,30.00,10.0,WNW,9.2,-,N/A,,Clear,290,2012-10-29 17:53:00
12:53 PM,68.0,39.0,35,29.97,10.0,WNW,9.2,-,N/A,,Clear,290,2012-10-29 18:53:00
1:53 PM,69.8,37.4,31,30.00,10.0,West,10.4,-,N/A,,Clear,270,2012-10-29 19:53:00
2:53 PM,66.9,37.9,34,29.95,10.0,West,15.0,-,N/A,,Clear,280,2012-10-29 20:53:00
3:53 PM,69.1,37.0,31,29.94,10.0,WNW,11.5,-,N/A,,Clear,290,2012-10-29 21:53:00
4:53 PM,66.0,39.0,37,29.95,10.0,WNW,4.6,-,N/A,,Clear,290,2012-10-29 22:53:00
5:53 PM,63.0,39.0,41,29.96,10.0,WSW,4.6,-,N/A,,Clear,250,2012-10-29 23:53:00
6:53 PM,57.9,39.0,49,29.99,10.0,WNW,4.6,-,N/A,,Partly Cloudy,300,2012-10-30 00:53:00
7:53 PM,54.0,39.0,57,30.00,10.0,NNW,3.5,-,N/A,,Clear,330,2012-10-30 01:53:00
8:53 PM,48.9,37.9,66,30.00,10.0,WNW,5.8,-,N/A,,Clear,300,2012-10-30 02:53:00
9:53 PM,51.1,37.9,61,29.98,10.0,WNW,6.9,-,N/A,,Overcast,290,2012-10-30 03:53:00
10:53 PM,46.9,37.0,68,29.98,10.0,NNW,4.6,-,N/A,,Clear,330,2012-10-30 04:53:00
11:53 PM,43.0,36.0,76,29.99,10.0,NW,5.8,-,N/A,,Clear,320,2012-10-30 05:53:00